Flag for India Weather past 2 weeks in Chandigarh, Chandigarh, India

Now
55 °F

Haze.


Feels Like: 54 °F
Forecast: 41 / 66 °F
Wind: 7 mph from Northwest

Location: Amritsar Airport

Current Time: Jan 30, 2015 at 11:18:44 AM

Latest Report: Jan 30, 2015 at 10:30 AM


Visibility: 1 mi

Pressure: 30.21 "Hg

Humidity: 63%

Dew point: 43 °F

Location of ChandigarhLocation

Historic Weather in Chandigarh — Graph

°F

Chandigarh temperature yesterday

Maximum temperature yesterday: 64 °F (at 1:30 PM)
Minimum temperature yesterday: 41 °F (at 5:00 AM)
Average temperature yesterday: 50 °F

Past Weeks' High & Low Weather Summary

 TemperatureHumidityPressure
High68 °F (Jan 17, 2:00 PM)100% (Jan 16, 12:30 AM)30.24 "Hg (Jan 16, 12:30 AM)
Low34 °F (Jan 28, 8:00 AM)39% (Jan 28, 4:00 PM)30.01 "Hg (Jan 28, 3:30 PM)
Average52 °F85%30.11 "Hg
* Reported Jan 15 9:30 AM — Jan 30 9:30 AM, Chandigarh, Weather by CustomWeather, © 2014

Note: Actual official high and low records may vary slightly from our data, if they occured in-between our weather recording intervals... More about our weather records

Advertising

Chandigarh weather history for previous 24 hours

 ConditionsComfort  
Time TempWeatherWind HumidityBarometerVisibility
9:30 AM
Jan 30
48 °FFog.6 mph82%30.18 "Hg1 mi
8:30 AM41 °FFog.No wind93%30.18 "Hg1 mi
8:00 AM39 °FFog.No wind93%30.18 "Hg1 mi
7:30 AM39 °FFog.No wind93%30.15 "Hg1 mi
7:00 AM39 °FFog.No wind100%30.15 "Hg1 mi
5:30 AM39 °FFog.No wind100%30.15 "Hg1 mi
5:00 AM39 °FFog.No wind93%30.15 "Hg1 mi
4:30 AM41 °FFog.No wind93%30.15 "Hg1 mi
4:00 AM41 °FFog.No wind93%30.15 "Hg1 mi
3:30 AM41 °FFog.No wind93%30.18 "Hg1 mi
3:00 AM41 °FFog.No wind93%30.18 "Hg1 mi
2:00 AM43 °FFog.No wind87%30.18 "Hg1 mi
1:30 AM45 °FFog.No wind81%30.18 "Hg1 mi
1:00 AM45 °FFog.No wind81%30.18 "Hg1 mi
12:30 AM45 °FFog.No wind87%30.18 "Hg1 mi
12:00 AM45 °FFog.No wind87%30.18 "Hg1 mi
11:30 PM
Jan 29
45 °FFog.No wind87%30.18 "Hg1 mi
11:00 PM46 °FFog.No wind82%30.18 "Hg1 mi
10:30 PM48 °FFog.No wind82%30.18 "Hg1 mi
10:00 PM48 °FFog.No wind82%30.15 "Hg1 mi
9:30 PM48 °FFog.No wind82%30.15 "Hg1 mi
9:00 PM48 °FFog.No wind82%30.15 "Hg1 mi
8:30 PM50 °FFog.No wind76%30.12 "Hg2 mi
8:00 PM52 °FHaze.No wind72%30.12 "Hg2 mi
7:30 PM52 °FPassing clouds.No wind72%30.12 "Hg2 mi
7:00 PM54 °FPassing clouds.No wind72%30.09 "Hg2 mi
6:30 PM57 °FScattered clouds.1 mph59%30.09 "Hg2 mi
6:00 PM57 °FScattered clouds.No wind63%30.09 "Hg2 mi
5:30 PM61 °FScattered clouds.6 mph52%30.09 "Hg2 mi
5:00 PM63 °FHaze.7 mph45%30.09 "Hg2 mi
4:30 PM63 °FHaze.7 mph42%30.09 "Hg2 mi
4:00 PM63 °FHaze.9 mph39%30.09 "Hg2 mi
3:30 PM64 °FHaze.8 mph40%30.09 "Hg2 mi
3:00 PM64 °FHaze.9 mph40%30.09 "Hg2 mi
2:30 PM64 °FHaze.6 mph40%30.09 "Hg2 mi
1:30 PM64 °FHaze.6 mph40%30.12 "Hg2 mi
12:00 PM61 °FScattered clouds.2 mph55%30.15 "Hg1 mi
11:30 AM59 °FScattered clouds.1 mph59%30.15 "Hg1 mi
Weather by CustomWeather, © 2014

See weather overviewHow to use our weather pages